Location: Les Moreaux
(47.2278°N, 1.4966°E)
Time: 20:56:58
(UTC+00:00)

Cosmos 2219 Rocket - Pass Details

Date: 19 May 2025
Orbit: 828 x 844 km, 71.0° (Epoch: 18 June)

Event Time Altitude Azimuth Distance (km) Brightness Sun altitude
Rises 22:20:04 0° 339° (NNW) 3,400 7.0 -19.8°
Reaches altitude 10° 22:23:26 10° 359° (N) 2,459 5.6 -20.0°
Maximum altitude 22:27:06 17° 40° (NE) 1,980 4.5 -20.2°
Drops below altitude 10° 22:30:44 10° 81° (E) 2,444 4.5 -20.4°
Enters shadow 22:32:28 - 93° (E) 2,893 4.8 -20.5°
